User: anonymous   Login
Location: Unspecified
(0.0000°N, 0.0000°E)
Time: 10:00:53
(UTC+00:00)
Language:

STARLINK-30207 - Orbit

View from above orbital plane
View from above orbital plane
View from above satellite
View from above satellite

Ground track
Ground track

The orbit is defined by the following mean orbital elements,

1 57407U          26145.42093933 +.00000000 +00000-0 +15176-4 0 00001
2 57407  43.0044 160.7294 0001836 277.6489  82.4155 15.27576114    04
Epoch (UTC): 25 May 2026 10:06:09
Eccentricity: 0.0001836
inclination: 43.0044°
perigee height: 482 km
apogee height: 484 km
right ascension of ascending node: 160.7294°
argument of perigee: 277.6489°
revolutions per day: 15.27576114
mean anomaly at epoch: 82.4155°

The dashed part of the orbit path shows where the satellite is in the earth's shadow,  

DLR